This demonstration page uses our WeatherBlox Daily Observations layout. Learn more.

Hourly Observations for March 2, 2020

Temp ( °F °C ) Dew Point ( °F °C ) Humidity (%) Winds ( mph kmh ) Pressure ( in mb ) Visibility ( mi km ) Precip ( " mm )
12:15 am 00:15 Clear 32 0.1 26 -3.5 77 77 NNW 8 13 30.07 1018 10 16.0934 0 0
12:35 am 00:35 Clear 33 0.3 26 -3.5 76 76 NNW 8 13 30.08 1019 10 16.0934 0 0
12:55 am 00:55 Clear 33 0.5 26 -3.1 77 77 N 9 15 30.06 1018 10 16.0934 0 0
1:15 am 01:15 Mostly Cloudy 34 0.9 27 -3 75 75 N 7 11 30.08 1018 10 16.0934 0 0
1:35 am 01:35 Mostly Cloudy 34 1 27 -2.8 76 76 N 10 17 30.07 1018 10 16.0934 0 0
1:55 am 01:55 Cloudy 34 0.9 27 -2.7 77 77 N 8 13 30.07 1018 10 16.0934 0 0
2:15 am 02:15 Cloudy 34 1 27 -2.8 76 76 N 8 13 30.08 1018 10 16.0934 0 0
2:35 am 02:35 Cloudy 34 1.1 28 -2.3 78 78 N 14 22 30.06 1018 10 16.0934 0 0
2:55 am 02:55 Cloudy 33 0.4 29 -1.5 87 87 N 16 26 30.06 1018 10 16.0934 0 0
3:15 am 03:15 Cloudy 32 0 29 -1.5 90 90 N 12 19 30.06 1018 10 16.0934 0 0
3:35 am 03:35 Cloudy 32 0 30 -1.3 91 91 N 7 11 30.06 1018 10 16.0934 0 0
3:55 am 03:55 Cloudy with Snow 32 -0.1 30 -1.3 92 92 NNW 8 13 30.08 1018 0.75 1.207005 0 0
4:15 am 04:15 Cloudy with Snow 31 -0.3 30 -1.1 94 94 NNW 3 6 30.07 1018 0.5 0.80467 0.01 0.254
4:35 am 04:35 Cloudy with Snow 31 -0.4 30 -1 96 96 N 6 9 30.06 1018 0.75 1.207005 0.02 0.508
4:55 am 04:55 Cloudy with Light Snow 31 -0.5 30 -1.1 96 96 N 5 7 30.04 1017 1.25 2.011675 0.04 1.016
5:15 am 05:15 Cloudy with Light Snow 31 -0.5 30 -1 96 96 Calm 30.03 1017 2.5 4.02335 0.03 0.762
5:35 am 05:35 Mostly Cloudy with Light Wintry Mix 30 -1.1 29 -1.6 96 96 N 3 6 30.04 1017 10 16.0934 0.04 1.016
5:55 am 05:55 Mostly Cloudy 29 -1.5 28 -2 96 96 Calm 30.04 1017 10 16.0934 0.07 1.778
6:15 am 06:15 Cloudy 29 -1.5 29 -1.8 98 98 Calm 30.02 1017 10 16.0934 0.01 0.254
6:35 am 06:35 Cloudy with Mist and Fog 28 -2.1 28 -2.5 97 97 WNW 3 6 30.03 1017 2 3.21868 0.02 0.508
6:55 am 06:55 Cloudy with Mist and Fog 28 -2.3 27 -2.7 97 97 WNW 5 7 30.04 1017 1.5 2.41401 0.02 0.508
7:15 am 07:15 Cloudy 27 -2.7 26 -3.1 97 97 NW 5 7 30.02 1017 10 16.0934 0 0
7:35 am 07:35 Cloudy 27 -2.8 26 -3.2 97 97 WNW 3 6 30.02 1017 10 16.0934 0 0
7:55 am 07:55 Cloudy 27 -2.8 26 -3.3 96 96 WNW 3 6 30.02 1017 10 16.0934 0 0
8:15 am 08:15 Partly Cloudy 27 -2.7 26 -3.2 96 96 NW 3 6 30 1016 10 16.0934 0 0
8:35 am 08:35 Sunny 28 -2.3 27 -2.8 96 96 W 5 7 30.01 1016 10 16.0934 0 0
8:55 am 08:55 Partly Cloudy 30 -1 28 -2 93 93 WSW 5 7 29.99 1016 10 16.0934 0 0
9:15 am 09:15 Sunny 30 -1 27 -2.6 89 89 SW 5 7 29.99 1016 10 16.0934 0 0
9:35 am 09:35 Sunny 30 -0.9 28 -2.5 89 89 SW 6 9 30 1016 10 16.0934 0 0
9:55 am 09:55 Partly Cloudy 31 -0.3 28 -2.3 87 87 SW 8 13 30 1016 10 16.0934 0 0
10:15 am 10:15 Mostly Cloudy 32 -0.2 28 -2 88 88 SW 8 13 30 1016 10 16.0934 0 0
10:35 am 10:35 Cloudy 32 0 29 -1.6 89 89 SW 9 15 29.99 1016 10 16.0934 0 0
10:55 am 10:55 Cloudy 33 0.3 30 -1.1 90 90 WSW 13 20 29.99 1016 10 16.0934 0 0
11:15 am 11:15 Cloudy 33 0.6 30 -0.9 90 90 SW 8 13 29.98 1015 10 16.0934 0 0
11:35 am 11:35 Cloudy 34 1 31 -0.6 89 89 SW 7 11 29.95 1014 10 16.0934 0 0
11:55 am 11:55 Cloudy 35 1.6 31 -0.4 87 87 SW 12 19 29.94 1014 10 16.0934 0 0
12:15 pm 12:15 Cloudy 35 1.7 31 -0.3 87 87 SW 10 17 29.93 1013 10 16.0934 0 0
12:35 pm 12:35 Cloudy 37 2.5 32 0 84 84 SW 13 20 29.9 1013 10 16.0934 0 0
12:55 pm 12:55 Cloudy 38 3.2 33 0.4 82 82 SW 15 24 29.87 1012 10 16.0934 0 0
1:15 pm 13:15 Partly Cloudy 39 4 33 0.8 80 80 WSW 13 20 29.85 1011 10 16.0934 0 0
1:35 pm 13:35 Partly Cloudy 40 4.6 34 1.2 79 79 SW 13 20 29.81 1010 10 16.0934 0 0
1:55 pm 13:55 Partly Cloudy 42 5.3 35 1.7 78 78 SW 13 20 29.79 1009 10 16.0934 0 0
2:15 pm 14:15 Partly Cloudy 43 6.1 36 2 75 75 SW 10 17 29.76 1008 10 16.0934 0 0
2:35 pm 14:35 Mostly Cloudy 44 6.7 35 1.7 71 71 WSW 13 20 29.74 1007 10 16.0934 0 0
2:55 pm 14:55 Mostly Cloudy 45 7.4 34 1.2 65 65 SW 15 24 29.73 1007 10 16.0934 0 0
3:15 pm 15:15 Partly Cloudy 47 8.3 34 0.9 60 60 WSW 18 30 29.71 1006 10 16.0934 0 0
3:35 pm 15:35 Partly Cloudy 47 8.4 33 0.6 58 58 WSW 14 22 29.7 1006 10 16.0934 0 0
3:55 pm 15:55 Sunny 48 8.8 33 0.3 56 56 WSW 15 24 29.68 1005 10 16.0934 0 0
4:15 pm 16:15 Sunny 48 9 32 0 54 54 WSW 16 26 29.68 1005 10 16.0934 0 0
4:35 pm 16:35 Sunny 49 9.6 32 -0.2 51 51 SW 15 24 29.68 1005 10 16.0934 0 0
4:55 pm 16:55 Sunny 49 9.7 32 -0.1 51 51 SW 10 17 29.68 1005 10 16.0934 0 0
5:15 pm 17:15 Sunny 49 9.6 32 0 52 52 SW 12 19 29.67 1005 10 16.0934 0 0
5:35 pm 17:35 Sunny 49 9.3 32 0 53 53 SW 9 15 29.66 1004 10 16.0934 0 0
5:55 pm 17:55 Sunny 48 9.1 31 -0.5 51 51 SW 9 15 29.65 1004 10 16.0934 0 0
6:15 pm 18:15 Sunny 46 8 31 -0.5 55 55 SSW 8 13 29.66 1004 10 16.0934 0 0
6:35 pm 18:35 Clear 44 6.8 31 -0.5 60 60 SW 6 9 29.67 1005 10 16.0934 0 0
6:55 pm 18:55 Clear 43 6.2 31 -0.5 63 63 SW 9 15 29.68 1005 10 16.0934 0 0
7:15 pm 19:15 Clear 43 6 31 -0.6 63 63 SW 7 11 29.69 1005 10 16.0934 0 0
7:35 pm 19:35 Clear 43 6 31 -0.6 63 63 WSW 7 11 29.71 1006 10 16.0934 0 0
7:55 pm 19:55 Clear 41 4.9 30 -1 66 66 W 7 11 29.72 1006 10 16.0934 0 0
8:15 pm 20:15 Clear 40 4.4 30 -1.2 67 67 WSW 8 13 29.73 1007 10 16.0934 0 0
8:35 pm 20:35 Clear 40 4.3 30 -1.3 67 67 W 8 13 29.73 1007 10 16.0934 0 0
8:55 pm 20:55 Clear 39 4 29 -1.6 67 67 W 8 13 29.75 1007 10 16.0934 0 0
9:15 pm 21:15 Clear 41 5.1 26 -3.2 55 55 WNW 9 15 29.75 1007 10 16.0934 0 0
9:35 pm 21:35 Partly Cloudy 41 4.8 26 -3.5 55 55 WNW 7 11 29.76 1008 10 16.0934 0 0
9:55 pm 21:55 Partly Cloudy 41 4.8 25 -3.8 54 54 WNW 7 11 29.76 1008 10 16.0934 0 0
10:15 pm 22:15 Mostly Cloudy 41 4.8 25 -4 53 53 WNW 8 13 29.77 1008 10 16.0934 0 0
10:35 pm 22:35 Partly Cloudy 40 4.6 24 -4.2 53 53 WNW 8 13 29.78 1009 10 16.0934 0 0
10:55 pm 22:55 Partly Cloudy 39 3.9 25 -4.1 56 56 W 7 11 29.8 1009 10 16.0934 0 0
11:15 pm 23:15 Mostly Cloudy 38 3.2 25 -3.7 61 61 W 7 11 29.8 1009 10 16.0934 0 0
11:35 pm 23:35 Mostly Cloudy 38 3.2 25 -4.1 59 59 W 7 11 29.8 1009 10 16.0934 0 0
11:55 pm 23:55 Cloudy 38 3.2 25 -4 60 60 W 9 15 29.81 1010 10 16.0934 0 0

Powered by AerisWeather